• En España
  • Lista de países
  • Para 7 días
  • Temperatura del agua
  • Mapa Satelital
  • El tiempo en el mapa
  • Informadores
  • user-avatar
    Iniciar sesión

    Tiempo cada hora Dobra

    Hoy, 20 Octubre, Sábado

    Tiempo Temperatura Precipitaciones Viento Presión Humedad
    00:00 +8°C° 0 mm 2 mps 761 mmHg 90%
    01:00 +7°C° 0 mm 2 mps 761 mmHg 90%
    02:00 +7°C° 0 mm 2 mps 761 mmHg 90%
    03:00 +7°C° 0 mm 2 mps 761 mmHg 91%
    04:00 +6°C° 0 mm 2 mps 761 mmHg 91%
    05:00 +6°C° 0 mm 2 mps 761 mmHg 90%
    06:00 +6°C° 0 mm 2 mps 762 mmHg 89%
    07:00 +5°C° 0 mm 3 mps 762 mmHg 88%
    08:00 +8°C° 0 mm 3 mps 762 mmHg 83%
    09:00 +9°C° 0 mm 3 mps 762 mmHg 77%
    10:00 +10°C° 0 mm 3 mps 762 mmHg 71%
    11:00 +10°C° 0 mm 4 mps 762 mmHg 68%
    12:00 +11°C° 0 mm 4 mps 762 mmHg 66%
    13:00 +11°C° 0 mm 4 mps 762 mmHg 63%
    14:00 +11°C° 0 mm 4 mps 762 mmHg 65%
    15:00 +11°C° 0 mm 4 mps 762 mmHg 67%
    16:00 +11°C° 0 mm 3 mps 762 mmHg 69%
    17:00 +10°C° 0 mm 3 mps 762 mmHg 74%
    18:00 +9°C° 0 mm 3 mps 762 mmHg 78%
    19:00 +8°C° 0 mm 2 mps 762 mmHg 82%
    20:00 +8°C° 0 mm 2 mps 762 mmHg 85%
    21:00 +8°C° 0 mm 2 mps 762 mmHg 88%
    22:00 +7°C° 0 mm 2 mps 763 mmHg 91%
    23:00 +7°C° 0 mm 2 mps 763 mmHg 92%

    Mañana, 21 Octubre, Domingo

    Tiempo Temperatura Precipitaciones Viento Presión Humedad
    00:00 +7°C° 0 mm 2 mps 763 mmHg 93%
    01:00 +7°C° 0 mm 2 mps 763 mmHg 93%
    02:00 +8°C° 0 mm 1 mps 763 mmHg 93%
    03:00 +8°C° 0 mm 1 mps 763 mmHg 94%
    04:00 +8°C° 0 mm 1 mps 763 mmHg 94%
    05:00 +8°C° 0 mm 1 mps 763 mmHg 94%
    06:00 +7°C° 0 mm 1 mps 763 mmHg 94%
    07:00 +7°C° 0 mm 1 mps 763 mmHg 94%
    08:00 +9°C° 0 mm 1 mps 763 mmHg 88%
    09:00 +11°C° 0 mm 1 mps 764 mmHg 82%
    10:00 +12°C° 0 mm 1 mps 764 mmHg 76%
    11:00 +13°C° 0 mm 1 mps 764 mmHg 71%
    12:00 +14°C° 0 mm 2 mps 764 mmHg 67%
    13:00 +14°C° 0 mm 2 mps 764 mmHg 62%
    14:00 +14°C° 0 mm 2 mps 763 mmHg 63%
    15:00 +14°C° 0 mm 2 mps 763 mmHg 65%
    16:00 +13°C° 0 mm 2 mps 763 mmHg 67%
    17:00 +12°C° 0 mm 2 mps 763 mmHg 70%
    18:00 +10°C° 0 mm 2 mps 763 mmHg 74%
    19:00 +9°C° 0 mm 2 mps 763 mmHg 78%
    20:00 +8°C° 0 mm 2 mps 763 mmHg 80%
    21:00 +8°C° 0 mm 2 mps 763 mmHg 81%
    22:00 +8°C° 0 mm 3 mps 763 mmHg 83%
    23:00 +7°C° 0 mm 3 mps 762 mmHg 84%

    Pasado mañana, 22 Octubre, Lunes

    Tiempo Temperatura Precipitaciones Viento Presión Humedad
    00:00 +7°C° 0 mm 3 mps 762 mmHg 85%
    01:00 +7°C° 0 mm 3 mps 762 mmHg 87%
    02:00 +5°C° 0 mm 3 mps 762 mmHg 88%
    03:00 +5°C° 0 mm 3 mps 761 mmHg 89%
    04:00 +5°C° 0 mm 3 mps 761 mmHg 90%
    05:00 +5°C° 0 mm 3 mps 761 mmHg 90%
    06:00 +5°C° 0 mm 4 mps 761 mmHg 90%
    07:00 +5°C° 0 mm 4 mps 760 mmHg 90%
    08:00 +6°C° 0.2 mm 4 mps 760 mmHg 88%
    09:00 +7°C° 0.2 mm 4 mps 761 mmHg 87%
    10:00 +8°C° 0.2 mm 4 mps 761 mmHg 85%
    11:00 +8°C° 0.4 mm 4 mps 761 mmHg 86%
    12:00 +8°C° 0.4 mm 4 mps 761 mmHg 86%
    13:00 +8°C° 0.4 mm 4 mps 761 mmHg 87%
    14:00 +8°C° 0.3 mm 4 mps 761 mmHg 83%
    15:00 +8°C° 0.3 mm 5 mps 761 mmHg 79%
    16:00 +8°C° 0.3 mm 5 mps 761 mmHg 75%
    17:00 +8°C° 0 mm 4 mps 761 mmHg 75%
    18:00 +7°C° 0 mm 4 mps 762 mmHg 75%
    19:00 +6°C° 0 mm 4 mps 762 mmHg 74%
    20:00 +6°C° 0 mm 4 mps 762 mmHg 76%
    21:00 +5°C° 0 mm 3 mps 762 mmHg 78%
    22:00 +5°C° 0 mm 3 mps 762 mmHg 80%
    23:00 +5°C° 0 mm 3 mps 762 mmHg 81%

    23 Octubre, Martes

    Tiempo Temperatura Precipitaciones Viento Presión Humedad
    00:00 +5°C° 0 mm 4 mps 762 mmHg 82%
    01:00 +5°C° 0 mm 4 mps 762 mmHg 83%
    02:00 +5°C° 0 mm 4 mps 761 mmHg 82%
    03:00 +5°C° 0 mm 4 mps 761 mmHg 82%
    04:00 +4°C° 0 mm 4 mps 760 mmHg 82%
    05:00 +3°C° 0 mm 5 mps 759 mmHg 83%
    06:00 +3°C° 0 mm 5 mps 759 mmHg 85%
    07:00 +3°C° 0 mm 5 mps 758 mmHg 86%
    08:00 +4°C° 0.4 mm 7 mps 757 mmHg 85%
    09:00 +4°C° 0.4 mm 8 mps 756 mmHg 84%
    10:00 +5°C° 0.4 mm 9 mps 755 mmHg 83%
    11:00 +5°C° 0.8 mm 9 mps 754 mmHg 84%
    12:00 +6°C° 0.8 mm 9 mps 752 mmHg 84%
    13:00 +6°C° 0.8 mm 10 mps 751 mmHg 85%
    14:00 +7°C° 1.8 mm 10 mps 750 mmHg 86%
    15:00 +7°C° 1.8 mm 10 mps 748 mmHg 87%
    16:00 +8°C° 1.8 mm 10 mps 747 mmHg 88%
    17:00 +8°C° 1.8 mm 10 mps 746 mmHg 88%
    18:00 +9°C° 1.8 mm 11 mps 745 mmHg 87%
    19:00 +9°C° 1.8 mm 11 mps 743 mmHg 87%
    20:00 +11°C° 0.9 mm 11 mps 743 mmHg 84%
    21:00 +11°C° 0.9 mm 11 mps 743 mmHg 81%
    22:00 +10°C° 0.9 mm 12 mps 743 mmHg 78%
    23:00 +9°C° 0.3 mm 11 mps 743 mmHg 76%

    24 Octubre, Miércoles

    Tiempo Temperatura Precipitaciones Viento Presión Humedad
    00:00 +9°C° 0.3 mm 10 mps 743 mmHg 74%
    01:00 +8°C° 0.3 mm 10 mps 744 mmHg 72%
    02:00 +7°C° 0.1 mm 9 mps 745 mmHg 68%
    03:00 +7°C° 0.1 mm 9 mps 746 mmHg 64%
    04:00 +6°C° 0.1 mm 9 mps 746 mmHg 60%
    05:00 +5°C° 0 mm 8 mps 747 mmHg 59%
    06:00 +5°C° 0 mm 8 mps 748 mmHg 58%
    07:00 +4°C° 0 mm 7 mps 749 mmHg 57%
    08:00 +5°C° 0 mm 7 mps 750 mmHg 53%
    09:00 +5°C° 0 mm 8 mps 750 mmHg 50%
    10:00 +6°C° 0 mm 9 mps 751 mmHg 47%
    11:00 +7°C° 0 mm 8 mps 751 mmHg 47%
    12:00 +7°C° 0 mm 8 mps 751 mmHg 46%
    13:00 +7°C° 0 mm 8 mps 752 mmHg 46%
    14:00 +8°C° 0 mm 7 mps 752 mmHg 48%
    15:00 +8°C° 0 mm 6 mps 752 mmHg 51%
    16:00 +7°C° 0 mm 5 mps 752 mmHg 54%
    17:00 +7°C° 0 mm 5 mps 752 mmHg 56%
    18:00 +7°C° 0 mm 4 mps 752 mmHg 58%
    19:00 +6°C° 0 mm 4 mps 752 mmHg 61%
    20:00 +6°C° 0 mm 4 mps 752 mmHg 64%
    21:00 +5°C° 0 mm 3 mps 752 mmHg 67%
    22:00 +5°C° 0 mm 3 mps 752 mmHg 70%
    23:00 +5°C° 0 mm 3 mps 752 mmHg 73%

    25 Octubre, Jueves

    Tiempo Temperatura Precipitaciones Viento Presión Humedad
    00:00 +5°C° 0 mm 3 mps 751 mmHg 77%
    01:00 +7°C° 0 mm 3 mps 751 mmHg 80%
    02:00 +7°C° 0.1 mm 3 mps 751 mmHg 84%
    03:00 +7°C° 0.1 mm 4 mps 751 mmHg 87%
    04:00 +8°C° 0.1 mm 5 mps 750 mmHg 90%
    05:00 +8°C° 0.2 mm 6 mps 750 mmHg 88%
    06:00 +9°C° 0.2 mm 6 mps 750 mmHg 87%
    07:00 +10°C° 0.2 mm 7 mps 750 mmHg 85%
    08:00 +10°C° 0.1 mm 8 mps 750 mmHg 82%
    09:00 +10°C° 0.1 mm 8 mps 750 mmHg 79%
    10:00 +10°C° 0.1 mm 8 mps 749 mmHg 76%
    11:00 +10°C° 0.1 mm 8 mps 749 mmHg 78%
    12:00 +10°C° 0.1 mm 8 mps 749 mmHg 79%
    13:00 +10°C° 0.1 mm 8 mps 749 mmHg 80%
    14:00 +10°C° 0.2 mm 8 mps 749 mmHg 81%
    15:00 +10°C° 0.2 mm 8 mps 749 mmHg 81%
    16:00 +10°C° 0.2 mm 8 mps 749 mmHg 82%
    17:00 +10°C° 0.1 mm 8 mps 748 mmHg 81%
    18:00 +10°C° 0.1 mm 8 mps 748 mmHg 81%
    19:00 +10°C° 0.1 mm 8 mps 748 mmHg 81%
    20:00 +10°C° 0.1 mm 8 mps 748 mmHg 81%
    21:00 +10°C° 0.1 mm 8 mps 748 mmHg 82%
    22:00 +10°C° 0.1 mm 8 mps 748 mmHg 82%
    23:00 +10°C° 0.3 mm 8 mps 747 mmHg 83%
    Mostrar más